Location: Kawakawa
(35.3830°S, 174.0670°E)
Time: 17:02:39
(UTC+13:00)

Explorer 7 - Pass Details

Date: 18 December 2019
Orbit: 485 x 679 km, 50.3° (Epoch: 17 January)

Event Time Altitude Azimuth Distance (km) Brightness Sun altitude
Rises 01:49:20 0° 316° (NW) 2,738 - -30.8°
Reaches altitude 10° 01:51:37 10° 317° (NW) 1,816 - -30.8°
Maximum altitude 01:55:44 75° 42° (NE) 551 - -30.6°
Exits shadow 01:58:50 16° 125° (SE) 1,415 9.3 -30.5°
Drops below altitude 10° 01:59:39 10° 127° (SE) 1,738 9.9 -30.5°
Sets 02:01:49 0° 128° (SE) 2,609 10.9 -30.4°
